DAL2940 KATL-KDTW

Flight info

Callsign DAL2940
Flight time 1h 25m
Altitude 35000
Route PADGT2 SMTTH Q67 HNN SUBWY HTROD2
Aircraft A321/M-SDE3FGHIRWY/LB1

Departure

Time 2026-05-07 17:38
Airport Hartsfield Jackson Atlanta International Airport (KATL)

Arrival

Time 2026-05-07 19:03
Airport Detroit Metropolitan Wayne County Airport (KDTW)
Time Latitude Longitude Altitude Speed Heading
2026-05-07 16:52 33.64305 -84.43646 1006 ft 0 kts 89°
2026-05-07 17:02 33.64305 -84.43647 1007 ft 0 kts 89°
2026-05-07 17:25 33.64305 -84.43651 1006 ft 3 kts 82°
2026-05-07 17:25 33.64305 -84.43659 1006 ft 4 kts 91°
2026-05-07 17:25 33.64302 -84.43690 1006 ft 4 kts 67°
2026-05-07 17:25 33.64288 -84.43715 1006 ft 4 kts 28°
2026-05-07 17:26 33.64271 -84.43721 1006 ft 1 kts 359°
2026-05-07 17:26 33.64268 -84.43721 1006 ft 1 kts 359°
2026-05-07 17:28 33.64269 -84.43721 1006 ft 2 kts 359°
2026-05-07 17:29 33.64306 -84.43722 1006 ft 6 kts 359°
2026-05-07 17:29 33.64344 -84.43722 1006 ft 5 kts 359°
2026-05-07 17:29 33.64404 -84.43722 1006 ft 13 kts
2026-05-07 17:29 33.64456 -84.43674 1006 ft 10 kts 75°
2026-05-07 17:30 33.64460 -84.43582 1006 ft 14 kts 89°
2026-05-07 17:30 33.64460 -84.43471 1006 ft 13 kts 90°
2026-05-07 17:30 33.64459 -84.43370 1006 ft 11 kts 90°
2026-05-07 17:30 33.64459 -84.43269 1007 ft 14 kts 90°
2026-05-07 17:31 33.64459 -84.43159 1007 ft 12 kts 90°
2026-05-07 17:31 33.64459 -84.43061 1007 ft 11 kts 90°
2026-05-07 17:31 33.64459 -84.42972 1006 ft 10 kts 90°
2026-05-07 17:31 33.64460 -84.42868 1006 ft 14 kts 90°
2026-05-07 17:32 33.64463 -84.42756 1006 ft 13 kts 84°
2026-05-07 17:32 33.64469 -84.42656 1006 ft 11 kts 89°
2026-05-07 17:32 33.64469 -84.42566 1006 ft 10 kts 90°
2026-05-07 17:32 33.64469 -84.42485 1006 ft 10 kts 90°
2026-05-07 17:33 33.64469 -84.42405 1006 ft 11 kts 90°
2026-05-07 17:33 33.64469 -84.42321 1006 ft 9 kts 90°
2026-05-07 17:33 33.64487 -84.42227 1006 ft 14 kts 64°
2026-05-07 17:33 33.64533 -84.42128 1006 ft 15 kts 65°
2026-05-07 17:34 33.64543 -84.41991 1006 ft 16 kts 89°
2026-05-07 17:34 33.64543 -84.41862 1006 ft 15 kts 90°
2026-05-07 17:34 33.64543 -84.41729 1007 ft 18 kts 89°
2026-05-07 17:34 33.64543 -84.41585 1007 ft 17 kts 90°
2026-05-07 17:35 33.64543 -84.41451 1007 ft 15 kts 90°
2026-05-07 17:35 33.64542 -84.41317 1007 ft 16 kts 90°
2026-05-07 17:35 33.64542 -84.41187 1007 ft 15 kts 90°
2026-05-07 17:35 33.64543 -84.41055 1007 ft 16 kts 90°
2026-05-07 17:36 33.64542 -84.40924 1006 ft 15 kts 90°
2026-05-07 17:36 33.64553 -84.40805 1006 ft 14 kts 73°
2026-05-07 17:36 33.64570 -84.40696 1006 ft 13 kts 89°
2026-05-07 17:36 33.64572 -84.40596 1005 ft 11 kts 77°
2026-05-07 17:37 33.64632 -84.40566 1004 ft 11 kts 358°
2026-05-07 17:37 33.64680 -84.40620 1004 ft 14 kts 275°
2026-05-07 17:37 33.64682 -84.40921 1007 ft 68 kts 270°
2026-05-07 17:37 33.64679 -84.41742 1007 ft 126 kts 270°
2026-05-07 17:38 33.64677 -84.42981 1028 ft 167 kts 271°
2026-05-07 17:38 33.64666 -84.44337 1757 ft 155 kts 274°
2026-05-07 17:38 33.64685 -84.45615 2438 ft 152 kts 278°
2026-05-07 17:38 33.65029 -84.46811 2973 ft 157 kts 294°
2026-05-07 17:39 33.65513 -84.48095 3198 ft 178 kts 293°
2026-05-07 17:39 33.66047 -84.49529 3364 ft 199 kts 293°
2026-05-07 17:39 33.66634 -84.51109 3501 ft 222 kts 293°
2026-05-07 17:39 33.67302 -84.52898 3786 ft 245 kts 293°
2026-05-07 17:40 33.68013 -84.54791 4488 ft 251 kts 292°
2026-05-07 17:40 33.68782 -84.56679 5306 ft 254 kts 302°
2026-05-07 17:40 33.70167 -84.58022 6103 ft 267 kts 334°
2026-05-07 17:40 33.72039 -84.58403 6880 ft 277 kts 349°
2026-05-07 17:41 33.73986 -84.58444 7609 ft 282 kts 353°
2026-05-07 17:41 33.75969 -84.58371 8356 ft 286 kts 354°
2026-05-07 17:41 33.77976 -84.58269 9061 ft 291 kts 354°
2026-05-07 17:41 33.80005 -84.58174 9800 ft 294 kts 354°
2026-05-07 17:42 33.82067 -84.57775 10447 ft 308 kts
2026-05-07 17:42 33.84179 -84.56978 10723 ft 329 kts
2026-05-07 17:42 33.86409 -84.56153 10837 ft 350 kts
2026-05-07 17:42 33.88827 -84.55264 11148 ft 364 kts
2026-05-07 17:43 33.91264 -84.54362 11725 ft 370 kts
2026-05-07 17:43 33.93708 -84.53457 12346 ft 373 kts
2026-05-07 17:43 33.96236 -84.52521 13018 ft 377 kts
2026-05-07 17:43 33.98720 -84.51602 13628 ft 380 kts
2026-05-07 17:44 34.01260 -84.50662 14249 ft 384 kts
2026-05-07 17:44 34.03827 -84.49713 14794 ft 388 kts
2026-05-07 17:44 34.06423 -84.48756 15313 ft 392 kts
2026-05-07 17:44 34.09056 -84.47786 15830 ft 397 kts
2026-05-07 17:45 34.11715 -84.46804 16348 ft 402 kts
2026-05-07 17:45 34.14406 -84.45806 16833 ft 407 kts
2026-05-07 17:45 34.17134 -84.44793 17306 ft 412 kts
2026-05-07 17:45 34.19887 -84.43773 17798 ft 416 kts
2026-05-07 17:46 34.22669 -84.42743 18277 ft 420 kts
2026-05-07 17:46 34.25480 -84.41699 18682 ft 425 kts
2026-05-07 17:46 34.28322 -84.40643 19094 ft 428 kts
2026-05-07 17:46 34.31148 -84.39776 19494 ft 422 kts 359°
2026-05-07 17:47 34.34039 -84.39085 19904 ft 425 kts 359°
2026-05-07 17:47 34.36950 -84.38392 20344 ft 428 kts 358°
2026-05-07 17:47 34.39887 -84.37691 20739 ft 432 kts 359°
2026-05-07 17:47 34.42845 -84.36978 21080 ft 435 kts 359°
2026-05-07 17:48 34.45822 -84.36260 21484 ft 438 kts 359°
2026-05-07 17:48 34.48819 -84.35535 21892 ft 441 kts 359°
2026-05-07 17:48 34.51837 -84.34805 22310 ft 444 kts 359°
2026-05-07 17:48 34.54874 -84.34070 22731 ft 446 kts 359°
2026-05-07 17:49 34.57928 -84.33329 23112 ft 449 kts 359°
2026-05-07 17:49 34.61003 -84.32585 23527 ft 452 kts 358°
2026-05-07 17:49 34.64102 -84.31836 23831 ft 456 kts 358°
2026-05-07 17:49 34.67220 -84.31080 24171 ft 458 kts 358°
2026-05-07 17:50 34.70355 -84.30319 24535 ft 460 kts 358°
2026-05-07 17:50 34.73504 -84.29554 24900 ft 462 kts 358°
2026-05-07 17:50 34.76666 -84.28786 25250 ft 464 kts 358°
2026-05-07 17:50 34.79843 -84.28015 25566 ft 467 kts 358°
2026-05-07 17:51 34.83036 -84.27238 25896 ft 469 kts 358°
2026-05-07 17:51 34.86243 -84.26456 26283 ft 471 kts 358°
2026-05-07 17:51 34.89468 -84.25671 26571 ft 474 kts 357°
2026-05-07 17:51 34.92712 -84.24881 26883 ft 477 kts 357°
2026-05-07 17:52 34.95972 -84.24084 27171 ft 479 kts 357°
2026-05-07 17:52 34.99248 -84.23283 27457 ft 481 kts 357°
2026-05-07 17:52 35.02538 -84.22478 27777 ft 483 kts 357°
2026-05-07 17:52 35.05848 -84.21668 28068 ft 485 kts 357°
2026-05-07 17:53 35.09166 -84.20858 28331 ft 487 kts 357°
2026-05-07 17:53 35.12499 -84.20044 28633 ft 490 kts 357°
2026-05-07 17:53 35.15854 -84.19222 28864 ft 493 kts 357°
2026-05-07 17:53 35.19226 -84.18395 29133 ft 495 kts 357°
2026-05-07 17:54 35.22618 -84.17561 29434 ft 497 kts 357°
2026-05-07 17:54 35.25981 -84.16733 29723 ft 499 kts 356°
2026-05-07 17:54 35.29381 -84.15896 30061 ft 499 kts 357°
2026-05-07 17:54 35.32792 -84.15051 30392 ft 499 kts 356°
2026-05-07 17:55 35.36193 -84.14206 30762 ft 498 kts 356°
2026-05-07 17:55 35.39590 -84.13364 31099 ft 498 kts 356°
2026-05-07 17:55 35.42981 -84.12525 31445 ft 497 kts 356°
2026-05-07 17:55 35.46363 -84.11687 31780 ft 495 kts 356°
2026-05-07 17:56 35.49739 -84.10851 32132 ft 494 kts 356°
2026-05-07 17:56 35.53106 -84.10021 32492 ft 493 kts 356°
2026-05-07 17:56 35.56473 -84.09189 32844 ft 492 kts 356°
2026-05-07 17:56 35.59830 -84.08352 33205 ft 491 kts 356°
2026-05-07 17:57 35.63127 -84.07530 33635 ft 489 kts 355°
2026-05-07 17:57 35.65382 -84.06968 33873 ft 488 kts 355°
2026-05-07 17:57 35.69786 -84.05877 34271 ft 487 kts 355°
2026-05-07 17:57 35.73115 -84.05053 34540 ft 487 kts 355°
2026-05-07 17:58 35.75353 -84.04497 34712 ft 487 kts 355°
2026-05-07 17:58 35.79747 -84.03399 34984 ft 487 kts 355°
2026-05-07 17:58 35.85243 -84.02012 35036 ft 482 kts 355°
2026-05-07 17:59 35.91806 -83.99870 35043 ft 506 kts
2026-05-07 17:59 35.95009 -83.97865 35046 ft 523 kts 16°
2026-05-07 17:59 35.98158 -83.95618 35044 ft 524 kts 17°
2026-05-07 18:00 36.04471 -83.91074 35031 ft 525 kts 17°
2026-05-07 18:00 36.10783 -83.86541 35079 ft 525 kts 16°
2026-05-07 18:01 36.17117 -83.82025 35034 ft 525 kts 16°
2026-05-07 18:01 36.23430 -83.77504 35015 ft 525 kts 16°
2026-05-07 18:02 36.32906 -83.70689 34991 ft 525 kts 16°
2026-05-07 18:03 36.39226 -83.66132 34979 ft 524 kts 15°
2026-05-07 18:03 36.45536 -83.61565 34974 ft 525 kts 16°
2026-05-07 18:04 36.51805 -83.57023 34993 ft 526 kts 15°
2026-05-07 18:04 36.58138 -83.52457 35046 ft 526 kts 15°
2026-05-07 18:05 36.64488 -83.47856 34995 ft 528 kts 16°
2026-05-07 18:05 36.70837 -83.43230 34991 ft 529 kts 16°
2026-05-07 18:06 36.77182 -83.38590 34994 ft 528 kts 16°
2026-05-07 18:06 36.83529 -83.33941 34989 ft 528 kts 16°
2026-05-07 18:07 36.89811 -83.29322 34971 ft 527 kts 16°
2026-05-07 18:07 36.96131 -83.24668 34974 ft 528 kts 15°
2026-05-07 18:08 37.02457 -83.20006 34976 ft 528 kts 16°
2026-05-07 18:08 37.08796 -83.15328 34961 ft 529 kts 16°
2026-05-07 18:09 37.15129 -83.10630 34968 ft 529 kts 16°
2026-05-07 18:09 37.21483 -83.05917 34974 ft 530 kts 16°
2026-05-07 18:10 37.27850 -83.01250 35060 ft 528 kts 14°
2026-05-07 18:10 37.34304 -82.96968 35033 ft 522 kts 11°
2026-05-07 18:11 37.40794 -82.92877 35011 ft 522 kts 11°
2026-05-07 18:11 37.47234 -82.88731 35003 ft 524 kts 12°
2026-05-07 18:12 37.53709 -82.84445 34997 ft 524 kts 13°
2026-05-07 18:12 37.60136 -82.80148 34991 ft 522 kts 13°
2026-05-07 18:13 37.66572 -82.75885 34983 ft 523 kts 13°
2026-05-07 18:13 37.73028 -82.71637 35068 ft 524 kts 13°
2026-05-07 18:14 37.79488 -82.67356 35045 ft 525 kts 13°
2026-05-07 18:14 37.85969 -82.63037 35033 ft 525 kts 13°
2026-05-07 18:15 37.92434 -82.58720 35015 ft 525 kts 13°
2026-05-07 18:15 37.98899 -82.54406 34984 ft 524 kts 14°
2026-05-07 18:16 38.05285 -82.50128 34975 ft 521 kts 14°
2026-05-07 18:16 38.11683 -82.45833 34973 ft 521 kts 14°
2026-05-07 18:17 38.18104 -82.41527 34978 ft 521 kts 14°
2026-05-07 18:17 38.24524 -82.37216 34979 ft 524 kts 14°
2026-05-07 18:18 38.31008 -82.32852 34992 ft 528 kts 14°
2026-05-07 18:18 38.37488 -82.28457 34996 ft 527 kts 14°
2026-05-07 18:19 38.43951 -82.24060 34974 ft 523 kts 15°
2026-05-07 18:19 38.50340 -82.19707 34966 ft 519 kts 15°
2026-05-07 18:20 38.56685 -82.15412 34972 ft 519 kts 14°
2026-05-07 18:20 38.63073 -82.11074 35029 ft 520 kts 15°
2026-05-07 18:21 38.69457 -82.06717 35022 ft 517 kts 13°
2026-05-07 18:21 38.72722 -82.04984 35018 ft 498 kts
2026-05-07 18:21 38.76008 -82.03944 35015 ft 478 kts 354°
2026-05-07 18:21 38.79248 -82.03537 35010 ft 459 kts 345°
2026-05-07 18:22 38.82380 -82.03702 35008 ft 441 kts 337°
2026-05-07 18:22 38.88441 -82.04684 35006 ft 439 kts 337°
2026-05-07 18:23 38.94488 -82.05628 34992 ft 438 kts 338°
2026-05-07 18:23 39.00552 -82.06574 34987 ft 439 kts 338°
2026-05-07 18:24 39.06616 -82.07530 34984 ft 439 kts 338°
2026-05-07 18:24 39.12684 -82.08489 35026 ft 439 kts 338°
2026-05-07 18:25 39.18760 -82.09453 35009 ft 439 kts 338°
2026-05-07 18:25 39.24820 -82.10418 35001 ft 439 kts 338°
2026-05-07 18:26 39.30890 -82.11381 35003 ft 439 kts 338°
2026-05-07 18:26 39.36952 -82.12344 34997 ft 438 kts 339°
2026-05-07 18:27 39.43004 -82.13307 34994 ft 438 kts 339°
2026-05-07 18:27 39.49058 -82.14283 34995 ft 439 kts 339°
2026-05-07 18:28 39.55118 -82.15258 35040 ft 439 kts 339°
2026-05-07 18:28 39.61144 -82.16221 35024 ft 439 kts 339°
2026-05-07 18:29 39.67217 -82.17202 35014 ft 439 kts 339°
2026-05-07 18:29 39.73285 -82.18176 35005 ft 439 kts 339°
2026-05-07 18:30 39.79354 -82.19154 35018 ft 439 kts 339°
2026-05-07 18:30 39.85421 -82.20135 35005 ft 439 kts 339°
2026-05-07 18:31 39.91489 -82.21117 35002 ft 439 kts 339°
2026-05-07 18:31 39.97556 -82.22106 34999 ft 439 kts 339°
2026-05-07 18:32 40.03625 -82.23100 35033 ft 440 kts 340°
2026-05-07 18:32 40.09699 -82.24091 35007 ft 440 kts 340°
2026-05-07 18:33 40.15776 -82.25082 35006 ft 440 kts 340°
2026-05-07 18:33 40.21819 -82.26066 35049 ft 440 kts 340°
2026-05-07 18:34 40.27897 -82.27054 35004 ft 440 kts 340°
2026-05-07 18:34 40.33969 -82.28052 35005 ft 440 kts 340°
2026-05-07 18:35 40.40042 -82.29056 34998 ft 440 kts 340°
2026-05-07 18:35 40.46117 -82.30055 35004 ft 440 kts 340°
2026-05-07 18:36 40.51973 -82.31693 34993 ft 422 kts 330°
2026-05-07 18:36 40.57566 -82.34033 34998 ft 422 kts 330°
2026-05-07 18:37 40.63170 -82.36378 34902 ft 427 kts 330°
2026-05-07 18:37 40.66043 -82.37593 34717 ft 439 kts 330°
2026-05-07 18:37 40.68967 -82.38826 34505 ft 442 kts 330°
2026-05-07 18:37 40.71901 -82.40050 34292 ft 442 kts 330°
2026-05-07 18:38 40.74823 -82.41260 34046 ft 438 kts 330°
2026-05-07 18:38 40.77736 -82.42471 33170 ft 440 kts 330°
2026-05-07 18:38 40.80631 -82.43674 32744 ft 431 kts 330°
2026-05-07 18:38 40.83475 -82.44855 32093 ft 429 kts 330°
2026-05-07 18:39 40.86339 -82.46063 31186 ft 433 kts 330°
2026-05-07 18:39 40.89201 -82.47278 30643 ft 430 kts 330°
2026-05-07 18:39 40.92044 -82.48480 30042 ft 428 kts 330°
2026-05-07 18:39 40.94832 -82.49651 29452 ft 423 kts 330°
2026-05-07 18:40 40.97618 -82.50817 28928 ft 417 kts 330°
2026-05-07 18:40 41.00362 -82.51969 28411 ft 411 kts 330°
2026-05-07 18:40 41.03067 -82.53110 27891 ft 405 kts 329°
2026-05-07 18:40 41.05764 -82.54252 27378 ft 400 kts 329°
2026-05-07 18:41 41.08364 -82.55351 26889 ft 395 kts 329°
2026-05-07 18:41 41.10951 -82.56466 26593 ft 387 kts 329°
2026-05-07 18:41 41.13495 -82.57590 26208 ft 383 kts 328°
2026-05-07 18:41 41.16013 -82.58721 25857 ft 381 kts 328°
2026-05-07 18:42 41.18516 -82.59853 25503 ft 379 kts 328°
2026-05-07 18:42 41.21008 -82.60975 25156 ft 377 kts 328°
2026-05-07 18:42 41.23488 -82.62089 24806 ft 376 kts 328°
2026-05-07 18:42 41.25960 -82.63195 24474 ft 374 kts 328°
2026-05-07 18:43 41.28417 -82.64302 24124 ft 370 kts 326°
2026-05-07 18:43 41.30684 -82.65730 23786 ft 354 kts 317°
2026-05-07 18:43 41.32810 -82.67368 23441 ft 352 kts 317°
2026-05-07 18:43 41.34929 -82.69001 23099 ft 352 kts 318°
2026-05-07 18:44 41.37045 -82.70634 22779 ft 351 kts 318°
2026-05-07 18:44 41.38443 -82.71711 22558 ft 351 kts 318°
2026-05-07 18:44 41.41272 -82.73888 22125 ft 350 kts 319°
2026-05-07 18:44 41.42669 -82.74965 21913 ft 350 kts 319°
2026-05-07 18:45 41.44771 -82.76586 21593 ft 349 kts 319°
2026-05-07 18:45 41.46864 -82.78202 21311 ft 348 kts 319°
2026-05-07 18:45 41.48954 -82.79817 20943 ft 346 kts 319°
2026-05-07 18:45 41.51039 -82.81432 20626 ft 346 kts 320°
2026-05-07 18:46 41.53791 -82.83562 20209 ft 345 kts 320°
2026-05-07 18:46 41.55192 -82.84647 19985 ft 345 kts 320°
2026-05-07 18:46 41.57266 -82.86254 19681 ft 345 kts 321°
2026-05-07 18:46 41.59343 -82.87873 19353 ft 345 kts 321°
2026-05-07 18:47 41.61415 -82.89487 19029 ft 344 kts 321°
2026-05-07 18:47 41.63485 -82.91096 18714 ft 344 kts 321°
2026-05-07 18:47 41.65547 -82.92697 18408 ft 343 kts 322°
2026-05-07 18:47 41.67554 -82.94389 18068 ft 337 kts 315°
2026-05-07 18:48 41.69330 -82.96389 17756 ft 333 kts 311°
2026-05-07 18:48 41.71082 -82.98408 17452 ft 332 kts 312°
2026-05-07 18:48 41.72808 -83.00391 17174 ft 331 kts 312°
2026-05-07 18:48 41.74550 -83.02393 16873 ft 329 kts 312°
2026-05-07 18:49 41.76281 -83.04390 16573 ft 328 kts 312°
2026-05-07 18:49 41.78004 -83.06381 16325 ft 327 kts 312°
2026-05-07 18:49 41.79724 -83.08367 16062 ft 326 kts 313°
2026-05-07 18:49 41.81440 -83.10347 15807 ft 323 kts 313°
2026-05-07 18:50 41.83131 -83.12293 15497 ft 317 kts 313°
2026-05-07 18:50 41.84788 -83.14203 15114 ft 313 kts 313°
2026-05-07 18:50 41.86439 -83.16098 14753 ft 313 kts 314°
2026-05-07 18:50 41.88115 -83.17990 14378 ft 315 kts 314°
2026-05-07 18:51 41.89800 -83.19869 14011 ft 314 kts 315°
2026-05-07 18:51 41.91479 -83.21736 13625 ft 312 kts 315°
2026-05-07 18:51 41.93147 -83.23594 13240 ft 311 kts 315°
2026-05-07 18:51 41.94806 -83.25444 12876 ft 309 kts 315°
2026-05-07 18:52 41.96454 -83.27284 12521 ft 307 kts 315°
2026-05-07 18:52 41.98082 -83.29106 12262 ft 300 kts 315°
2026-05-07 18:52 41.99652 -83.30861 12124 ft 288 kts 315°
2026-05-07 18:52 42.01312 -83.32299 12005 ft 284 kts 333°
2026-05-07 18:53 42.03257 -83.32853 12006 ft 292 kts 354°
2026-05-07 18:53 42.05288 -83.32368 11992 ft 304 kts 17°
2026-05-07 18:53 42.07172 -83.30988 11992 ft 309 kts 26°
2026-05-07 18:53 42.09023 -83.29505 11992 ft 310 kts 26°
2026-05-07 18:54 42.10876 -83.28025 11991 ft 310 kts 25°
2026-05-07 18:54 42.12733 -83.26563 11992 ft 310 kts 25°
2026-05-07 18:54 42.14600 -83.25105 11989 ft 310 kts 25°
2026-05-07 18:54 42.16466 -83.23653 11990 ft 310 kts 25°
2026-05-07 18:55 42.18327 -83.22203 11990 ft 306 kts 25°
2026-05-07 18:55 42.20122 -83.20792 12003 ft 291 kts 25°
2026-05-07 18:55 42.21826 -83.19443 12009 ft 277 kts 25°
2026-05-07 18:55 42.23452 -83.18165 11965 ft 274 kts 24°
2026-05-07 18:56 42.25152 -83.16889 11251 ft 287 kts 23°
2026-05-07 18:56 42.26957 -83.15575 10445 ft 302 kts 24°
2026-05-07 18:56 42.28814 -83.14228 9602 ft 302 kts 25°
2026-05-07 18:56 42.30661 -83.12880 8733 ft 300 kts 25°
2026-05-07 18:57 42.32483 -83.11542 7894 ft 297 kts 25°
2026-05-07 18:57 42.34385 -83.10625 7091 ft 286 kts
2026-05-07 18:57 42.36314 -83.10833 6322 ft 273 kts 338°
2026-05-07 18:57 42.37940 -83.12020 5572 ft 262 kts 315°
2026-05-07 18:58 42.39026 -83.13873 5117 ft 243 kts 294°
2026-05-07 18:58 42.39507 -83.15946 4830 ft 223 kts 276°
2026-05-07 18:58 42.39457 -83.17961 4634 ft 209 kts 260°
2026-05-07 18:58 42.38961 -83.19784 4377 ft 205 kts 243°
2026-05-07 18:59 42.38086 -83.21278 4149 ft 202 kts 226°
2026-05-07 18:59 42.36926 -83.22348 3929 ft 203 kts 213°
2026-05-07 18:59 42.35684 -83.23263 3670 ft 202 kts 213°
2026-05-07 18:59 42.34454 -83.24176 3398 ft 202 kts 213°
2026-05-07 19:00 42.33227 -83.25089 3127 ft 201 kts 214°
2026-05-07 19:00 42.32025 -83.25974 2878 ft 191 kts 214°
2026-05-07 19:00 42.30901 -83.26795 2613 ft 180 kts 213°
2026-05-07 19:00 42.29833 -83.27578 2396 ft 167 kts 215°
2026-05-07 19:01 42.28873 -83.28283 2192 ft 150 kts 215°
2026-05-07 19:01 42.27994 -83.28934 1994 ft 141 kts 216°
2026-05-07 19:01 42.27140 -83.29568 1804 ft 138 kts 217°
2026-05-07 19:01 42.26301 -83.30191 1606 ft 137 kts 217°
2026-05-07 19:02 42.25464 -83.30811 1409 ft 139 kts 216°
2026-05-07 19:02 42.24615 -83.31440 1235 ft 139 kts 214°
2026-05-07 19:02 42.23763 -83.32073 1052 ft 139 kts 217°
2026-05-07 19:02 42.22915 -83.32696 886 ft 139 kts 215°
2026-05-07 19:03 42.22072 -83.33331 697 ft 138 kts 219°
2026-05-07 19:03 42.21272 -83.33926 648 ft 118 kts 208°
2026-05-07 19:03 42.20728 -83.34322 645 ft 63 kts 209°
2026-05-07 19:03 42.20430 -83.34542 648 ft 44 kts 208°
2026-05-07 19:04 42.20222 -83.34698 647 ft 14 kts 210°
2026-05-07 19:04 42.20184 -83.34805 647 ft 13 kts 269°
2026-05-07 19:04 42.20184 -83.34924 647 ft 13 kts 269°
2026-05-07 19:04 42.20182 -83.35042 647 ft 13 kts 268°
2026-05-07 19:05 42.20179 -83.35161 647 ft 13 kts 267°
2026-05-07 19:05 42.20175 -83.35282 648 ft 13 kts 268°
2026-05-07 19:05 42.20171 -83.35406 648 ft 13 kts 267°
2026-05-07 19:05 42.20168 -83.35533 647 ft 14 kts 269°
2026-05-07 19:06 42.20167 -83.35668 646 ft 15 kts 270°
2026-05-07 19:06 42.20164 -83.35946 646 ft 15 kts 269°
2026-05-07 19:06 42.20162 -83.36083 646 ft 14 kts 269°
2026-05-07 19:07 42.20166 -83.36211 646 ft 14 kts 275°
2026-05-07 19:07 42.20181 -83.36336 646 ft 12 kts 280°
2026-05-07 19:07 42.20206 -83.36409 646 ft 8 kts 326°
2026-05-07 19:07 42.20267 -83.36400 646 ft 9 kts 13°
2026-05-07 19:08 42.20329 -83.36372 646 ft 10 kts 21°
2026-05-07 19:08 42.20388 -83.36329 646 ft 9 kts 31°
2026-05-07 19:08 42.20441 -83.36287 646 ft 10 kts 29°
2026-05-07 19:08 42.20499 -83.36243 646 ft 9 kts 29°
2026-05-07 19:09 42.20553 -83.36203 646 ft 8 kts 28°
2026-05-07 19:09 42.20601 -83.36168 649 ft 8 kts 28°
2026-05-07 19:09 42.20681 -83.36110 646 ft 12 kts 28°
2026-05-07 19:09 42.20755 -83.36056 647 ft 12 kts 28°
2026-05-07 19:10 42.20823 -83.36007 646 ft 8 kts 28°
2026-05-07 19:10 42.20848 -83.35987 646 ft 1 kts 34°
2026-05-07 19:10 42.20851 -83.35975 646 ft 4 kts 75°
2026-05-07 19:10 42.20827 -83.35920 646 ft 7 kts 120°
2026-05-07 19:11 42.20814 -83.35889 646 ft 0 kts 119°
2026-05-07 19:13 42.20814 -83.35890 646 ft 0 kts 119°